This demonstration page uses our WeatherBlox Daily Observations layout. Learn more.

Left ArrowRight Arrow

41.55636, -103.73856

Hourly Observations for April 27, 2020

Temp ( °F °C ) Dew Point ( °F °C ) Humidity (%) Winds ( mph kmh ) Pressure ( in mb ) Visibility ( mi km ) Precip ( " mm )
6:58 pm 18:58 Mostly Cloudy 57 14.1 43 6.3 60 60 WSW 7 11 29.97 1015 10 16 0.00 0.00
7:58 pm 19:58 Mostly Cloudy with Light Showers 54 12.4 43 6.2 66 66 SSW 14 22 29.97 1015 10 16 0.01 0.25
8:58 pm 20:58 Mostly Cloudy 49 9.7 44 6.5 81 81 SW 8 13 29.99 1016 10 16 0.00 0.00
9:58 pm 21:58 Clear 49 9.2 42 5.7 79 79 SSW 9 15 29.96 1015 10 16 0.00 0.00
10:58 pm 22:58 Clear 46 7.9 40 4.7 80 80 SW 9 15 29.97 1015 10 16 0.00 0.00
11:58 pm 23:58 Clear 47 8.2 40 4.6 78 78 WNW 6 9 29.96 1015 10 16 0.00 0.00
12:58 am 00:58 Clear 47 8.4 39 3.8 73 73 W 8 13 29.97 1015 10 16 0.00 0.00
1:58 am 01:58 Clear 45 7.1 38 3.5 78 78 WNW 5 7 29.96 1015 10 16 0.00 0.00
2:58 am 02:58 Clear 46 7.5 38 3.1 74 74 WSW 7 11 29.96 1015 10 16 0.00 0.00
3:58 am 03:58 Clear 47 8.2 37 2.9 70 70 W 7 11 29.96 1015 10 16 0.00 0.00
4:58 am 04:58 Clear 44 6.8 37 2.8 76 76 W 3 6 29.99 1016 10 16 0.00 0.00
5:58 am 05:58 Sunny 44 6.6 37 2.5 75 75 WSW 3 6 29.99 1016 10 16 0.00 0.00
6:58 am 06:58 Sunny 46 7.6 37 2.5 70 70 WSW 5 7 30.00 1016 10 16 0.00 0.00
7:58 am 07:58 Sunny 52 10.9 42 5.4 69 69 Calm 30.00 1016 10 16 0.00 0.00
8:58 am 08:58 Sunny 59 15 39 4.1 48 48 WNW 10 17 29.99 1016 10 16 0.00 0.00
9:58 am 09:58 Sunny 65 18.6 37 2.7 35 35 WNW 13 20 29.95 1014 10 16 0.00 0.00
10:58 am 10:58 Sunny 68 19.9 32 0.2 27 27 W 16 26 29.94 1014 10 16 0.00 0.00
11:58 am 11:58 Sunny 71 21.4 32 -0.1 24 24 WNW 16 26 29.91 1013 10 16 0.00 0.00
12:58 pm 12:58 Sunny 73 22.5 30 -1.3 20 20 NW 25 41 29.87 1012 10 16 0.00 0.00
1:58 pm 13:58 Sunny 74 23.5 29 -1.4 19 19 NW 13 20 29.84 1011 10 16 0.00 0.00
2:58 pm 14:58 Sunny 76 24.2 25 -4 15 15 NW 18 30 29.82 1010 10 16 0.00 0.00
3:58 pm 15:58 Mostly Sunny 76 24.5 29 -1.6 18 18 NW 17 28 29.79 1009 10 16 0.00 0.00
4:58 pm 16:58 Sunny 75 23.8 27 -2.8 17 17 NNW 16 26 29.79 1009 10 16 0.00 0.00
5:58 pm 17:58 Partly Cloudy 75 23.8 27 -2.8 17 17 NW 6 9 29.78 1008 10 16 0.00 0.00

Powered by AerisWeather